Wind_Speed
8 8 9 9 10 12 13 13 8 1 1 3 6 8 8 6 5 7 7 7 8 6 5 7 5 3 6 9 11 12 13 12 12 12 11 12 12 11 12 12 13 13 13 16 18 19 19 18 17 17 17 18 18 17 17 18 18 17 16 16 16 15 15 15 14 14 13 13 12 12 11 10 10 8 8 7 7 7 7 7 7 7 6 6 6 6
9 9 10 11 11 12 14 12 6 2 3 3 5 7 7 6 5 7 6 6 6 6 5 5 5 4 4 7 10 12 14 14 14 14 13 14 13 11 12 13 13 12 12 15 17 18 20 19 18 17 17 18 19 18 19 19 18 18 17 17 16 16 16 15 15 14 14 13 12 12 11 10 10 9 9 8 7 7 7 7 6 6 6 6 6 6
9 10 11 12 10 10 12 11 9 6 5 5 5 6 6 7 6 6 6 6 5 5 3 3 4 4 5 6 10 13 13 12 14 15 14 14 14 12 13 13 13 13 13 15 16 19 20 19 19 18 17 18 19 19 19 19 19 18 17 17 17 17 17 16 15 15 14 13 12 11 10 10 9 10 9 7 7 6 6 7 6 6 6 7 6 6
8 10 11 10 8 10 12 11 11 7 6 7 6 6 6 7 6 4 7 7 4 4 1 0 4 4 5 6 9 12 12 11 13 15 14 14 14 13 14 13 13 14 14 15 16 18 20 21 20 19 18 18 19 19 19 20 19 19 18 18 17 17 17 16 16 15 14 13 12 10 9 9 8 8 9 7 6 6 6 7 7 6 7 7 6 6
7 6 8 10 11 13 13 11 11 8 7 8 7 8 5 7 6 2 5 5 5 5 4 3 6 5 5 6 8 10 11 11 12 14 14 14 14 14 14 14 15 14 14 15 16 17 19 21 21 20 19 19 19 19 20 20 20 19 19 19 18 17 17 17 17 16 15 14 13 11 9 9 8 8 8 8 8 8 7 7 7 7 7 7 6 6
7 5 8 11 12 14 13 11 12 10 8 8 10 9 3 3 5 2 2 4 5 7 6 4 7 5 5 5 6 8 10 10 10 12 13 13 13 13 13 14 15 14 14 14 16 17 19 21 21 21 20 20 20 19 19 20 20 19 19 19 19 17 17 17 17 18 16 15 15 14 12 11 10 9 10 10 9 9 8 8 8 8 8 8 7 7
5 8 10 12 12 14 13 11 12 11 8 6 8 10 6 3 5 5 4 5 5 3 4 3 7 4 7 6 5 8 9 9 9 9 11 11 11 12 12 13 13 14 15 15 16 17 19 21 22 22 22 21 20 20 19 19 20 20 19 20 20 18 17 17 18 19 18 16 16 16 14 13 12 11 10 10 9 9 8 8 8 8 8 8 7 7
6 9 11 12 12 13 11 10 12 12 10 4 6 7 9 6 7 7 6 6 5 2 2 5 5 4 5 5 5 5 6 7 7 7 9 10 11 12 12 12 13 15 16 15 16 17 19 22 23 23 23 22 21 20 20 20 20 20 20 21 21 19 18 17 18 20 20 18 17 17 15 13 12 11 10 10 9 8 8 7 8 8 8 8 8 7
9 11 11 12 11 10 9 10 11 12 11 4 6 4 7 6 7 7 7 7 3 2 5 7 5 5 5 6 5 4 6 5 6 6 7 10 11 12 13 14 14 15 15 15 16 17 19 22 24 24 24 23 22 21 21 20 20 21 21 21 21 19 18 18 18 20 21 19 18 17 16 14 13 12 10 10 10 9 8 8 8 8 8 8 8 7
9 10 9 11 10 8 11 12 10 12 11 4 4 5 5 5 6 6 7 7 4 4 8 7 7 7 5 6 4 4 6 4 3 2 3 7 11 12 13 14 15 14 14 15 15 16 20 23 24 24 24 24 24 22 21 21 20 20 21 21 21 20 19 19 19 20 20 20 18 17 17 15 14 12 11 10 10 10 9 9 9 8 8 7 8 8
6 5 6 7 4 3 8 10 9 11 11 4 4 6 6 6 5 5 6 5 5 6 9 9 9 9 5 4 3 4 5 5 4 3 3 1 6 10 12 13 14 14 14 15 15 15 19 23 23 24 24 25 25 23 22 22 21 21 21 21 22 22 20 19 20 20 20 20 19 18 18 17 16 14 13 11 11 11 10 10 10 9 8 8 7 8
8 8 7 3 2 2 5 7 6 10 11 7 6 7 7 6 5 5 5 5 6 7 10 10 8 10 8 3 5 5 6 7 6 5 6 6 3 4 9 11 12 13 14 15 15 15 17 20 22 24 24 24 25 24 23 23 22 22 22 22 23 22 21 20 21 21 20 20 20 19 19 19 17 16 15 14 13 12 12 11 11 10 9 8 8 8
8 7 7 5 2 3 7 7 6 8 10 9 8 8 8 7 6 7 8 7 8 6 7 10 9 7 3 5 6 7 8 8 7 7 7 7 7 5 6 9 11 12 13 14 14 14 16 16 20 23 23 24 24 24 24 24 23 22 22 23 23 23 23 22 21 22 21 21 21 20 19 19 18 17 16 15 14 13 13 12 12 11 10 10 9 9
6 6 8 8 6 3 8 9 6 7 10 10 9 9 8 7 8 9 9 8 9 7 5 7 9 7 5 6 6 8 9 9 8 8 8 8 7 6 6 7 10 12 13 13 14 15 15 16 20 23 23 24 24 25 25 24 23 22 22 23 23 24 24 23 22 22 22 22 21 20 20 19 18 18 17 16 15 14 14 13 13 12 11 11 11 10
7 7 6 6 4 2 6 5 3 4 10 11 9 9 8 7 7 8 9 9 9 9 8 8 7 6 6 6 6 8 9 9 9 9 9 9 8 6 5 4 7 11 12 12 12 14 15 18 22 23 24 24 24 25 26 25 24 23 22 23 24 24 24 24 23 23 23 23 22 21 20 20 19 18 17 16 16 15 15 14 14 13 12 11 10 10
5 5 5 4 3 1 2 2 5 5 8 10 9 9 8 6 5 5 5 8 10 9 8 8 4 2 6 9 8 7 8 10 10 11 11 11 11 9 7 7 3 5 10 11 12 13 16 20 22 22 24 25 25 26 26 25 25 24 22 23 24 24 24 24 24 24 23 23 22 22 22 21 20 18 17 17 16 16 15 14 14 14 13 12 10 10
3 6 7 5 3 1 2 1 3 5 4 6 8 9 4 1 4 3 2 6 9 8 8 8 6 7 8 8 7 6 8 11 12 12 12 13 13 11 10 9 9 7 4 6 10 14 15 18 21 23 24 25 25 26 26 25 25 25 24 23 24 24 24 24 24 24 24 23 22 22 23 22 21 20 19 18 17 17 16 15 14 14 14 13 12 11
1 5 7 4 5 5 2 1 2 2 4 3 7 7 4 1 4 4 3 6 9 7 7 11 11 9 7 5 5 8 10 13 13 13 13 14 14 13 12 11 11 11 11 9 7 11 14 16 20 21 22 24 25 25 26 26 26 25 24 24 25 25 24 24 24 23 23 23 23 23 23 24 23 22 21 20 18 17 16 15 15 15 14 14 14 13
2 3 7 4 4 6 3 3 5 4 2 3 1 4 4 4 7 6 5 6 9 9 7 12 12 6 2 1 6 9 11 13 12 13 13 15 15 13 13 13 12 12 10 10 9 8 11 15 19 20 21 22 23 24 25 26 26 25 25 25 25 26 25 25 24 23 23 23 22 22 23 25 24 23 21 20 18 17 16 17 16 16 15 14 14 13
3 2 5 5 5 6 3 2 3 5 4 3 3 4 4 4 5 6 7 6 7 9 8 9 10 5 4 3 6 8 10 11 11 12 12 14 14 13 13 13 12 11 10 9 7 8 9 12 17 19 21 21 22 23 24 25 26 25 25 25 24 24 25 25 25 24 24 23 23 22 22 23 24 23 22 20 19 18 17 17 17 16 16 15 15 14
3 4 3 7 7 7 3 3 4 3 1 4 6 6 5 4 3 3 7 5 5 7 8 9 9 5 5 3 5 7 8 8 9 10 10 11 12 12 13 13 12 11 10 11 7 4 7 10 15 17 17 17 20 22 23 24 25 25 24 23 24 24 24 25 24 23 23 23 23 22 22 23 23 23 22 21 20 20 19 18 17 17 16 16 16 15
2 4 3 6 6 4 5 6 5 6 6 3 1 1 2 4 4 5 8 7 5 5 4 7 7 6 5 2 4 6 7 7 9 9 9 10 12 12 13 13 13 13 11 13 13 9 6 3 8 12 16 18 19 20 22 23 23 24 24 24 23 24 24 24 24 23 22 22 22 23 22 22 22 22 22 22 21 20 20 19 18 18 17 16 16 16
3 3 2 5 5 6 8 4 3 3 4 4 4 3 2 2 3 6 6 6 7 5 4 5 5 7 4 1 4 6 7 7 8 9 9 10 11 12 13 14 14 14 14 15 15 14 15 15 12 5 5 15 18 17 18 21 22 22 23 24 23 24 25 24 24 23 23 22 22 23 22 22 21 21 22 22 22 21 21 20 19 19 19 19 18 17
3 2 2 6 6 6 6 3 1 1 2 1 4 5 3 2 2 4 4 3 6 6 3 7 5 6 3 1 3 6 8 8 8 9 10 10 10 12 13 14 14 15 16 16 15 15 17 20 22 20 15 6 9 16 17 17 19 20 22 22 23 24 25 24 23 23 23 23 23 23 23 22 22 22 22 23 22 22 22 21 20 19 20 20 19 18
3 1 1 4 6 6 6 5 4 2 1 2 4 5 5 5 3 4 3 3 5 1 2 7 4 6 4 4 5 7 9 9 9 10 10 10 10 11 12 13 13 14 15 17 17 17 18 20 19 19 21 19 9 5 13 16 17 18 19 21 22 22 23 23 23 23 24 24 23 23 23 23 23 22 23 23 23 23 22 22 20 20 20 20 20 19
2 2 2 3 6 6 5 4 2 3 4 3 4 5 6 7 5 3 2 5 5 1 2 3 4 8 7 7 7 7 8 9 10 10 10 10 10 11 11 12 12 13 15 17 17 17 17 17 19 20 20 21 19 13 7 10 16 18 18 19 20 20 20 20 21 23 23 23 23 23 24 23 23 23 23 23 23 22 22 22 21 20 19 19 20 20
1 2 4 4 2 2 3 4 4 2 3 4 4 5 5 7 7 4 3 4 2 3 3 4 7 13 11 9 8 7 7 8 9 9 9 10 10 11 10 10 12 12 13 15 16 17 17 16 18 21 22 21 20 19 16 9 5 11 15 18 19 18 18 20 21 22 22 22 22 22 23 24 23 23 23 23 22 22 22 22 21 21 20 19 19 20
1 2 3 5 6 6 7 7 5 3 3 4 3 3 4 6 6 5 1 2 3 2 4 5 6 12 12 9 8 7 7 8 8 9 9 9 9 10 10 11 13 14 14 15 16 17 17 17 17 19 21 22 21 20 18 17 14 10 6 10 16 18 19 20 21 22 22 21 20 21 22 23 22 22 22 22 22 21 21 21 21 21 21 20 19 20
1 2 2 2 5 6 6 6 4 3 3 2 2 2 3 3 3 4 4 4 5 2 5 7 5 7 10 9 8 7 6 7 8 8 8 8 9 10 11 12 14 15 15 16 16 16 16 15 16 19 20 20 21 22 20 18 17 15 11 7 8 14 17 18 18 20 21 20 20 20 21 21 20 20 21 21 21 22 22 21 21 21 21 20 20 20
2 2 2 2 4 5 4 4 3 3 1 0 1 2 1 2 1 2 2 2 3 3 6 8 6 7 8 7 8 7 5 6 7 7 8 9 10 10 11 12 13 14 15 15 15 15 15 15 16 19 20 20 21 21 20 19 19 15 10 6 6 7 13 16 17 19 20 20 21 21 20 19 19 19 20 21 21 22 22 22 20 20 21 21 21 20
2 1 1 2 3 4 2 2 1 2 2 1 0 1 1 1 2 2 1 1 1 2 4 5 5 5 5 6 7 5 3 4 6 7 8 9 10 11 11 12 13 13 14 14 14 14 14 15 18 19 20 21 21 20 19 18 18 17 12 8 5 5 8 13 17 19 19 20 20 20 19 20 20 20 20 20 21 21 21 22 21 20 20 20 20 20
1 2 3 3 3 4 3 1 0 1 3 4 4 3 3 3 2 2 2 1 1 2 5 5 4 4 6 5 6 4 2 3 5 7 8 8 10 11 11 12 12 12 13 13 13 14 13 14 16 19 20 20 20 20 19 18 17 16 15 14 10 8 8 10 14 18 20 20 19 18 19 19 19 21 21 20 21 21 20 20 20 20 19 20 20 20
0 2 3 3 3 4 4 1 2 3 5 5 3 3 2 2 2 2 3 2 0 1 3 3 2 6 6 4 4 4 2 2 4 6 6 7 9 10 11 11 11 12 12 12 13 13 13 13 15 17 18 18 19 20 19 17 17 17 16 16 15 11 9 9 10 12 15 19 20 18 19 19 19 20 22 22 22 20 19 18 19 20 20 19 19 18
1 2 1 1 2 3 4 2 3 5 5 3 5 4 2 1 1 2 3 4 2 1 1 3 5 7 4 2 3 4 3 3 4 4 6 7 7 8 10 10 11 11 11 11 12 13 13 14 15 17 18 18 19 20 20 17 16 18 18 17 16 13 10 9 8 8 8 14 19 19 18 19 19 20 21 21 21 19 18 19 20 21 20 18 17 17
2 2 1 1 2 2 3 4 5 4 2 5 6 4 2 2 0 1 3 3 2 2 3 4 5 5 3 2 2 3 3 2 2 2 5 8 7 7 9 9 10 11 11 11 11 12 14 15 16 17 18 18 19 20 20 19 18 19 18 17 16 14 11 8 6 5 5 6 11 15 17 18 19 20 20 19 19 18 19 20 20 20 20 19 18 18
1 1 1 2 2 1 3 5 3 2 4 5 4 4 2 1 2 3 4 5 4 3 4 4 6 5 2 1 1 2 3 1 2 3 4 7 7 7 8 8 9 10 10 11 12 13 14 15 16 16 15 16 18 19 19 19 20 19 18 17 16 15 14 11 7 5 3 1 3 7 13 16 17 19 19 19 18 19 19 20 20 20 20 19 19 19
3 2 1 2 2 2 3 4 1 2 4 6 5 4 2 1 1 1 2 5 7 5 4 4 6 5 2 2 1 2 4 2 4 4 6 7 7 7 7 8 9 10 10 11 12 12 14 15 14 15 14 14 16 17 18 19 19 18 16 15 14 13 13 12 12 11 6 1 3 5 7 11 13 15 17 18 18 19 19 19 20 20 19 19 20 20
3 2 2 2 2 2 3 3 2 3 3 4 6 6 3 2 3 1 4 3 8 7 4 4 6 5 3 3 2 2 4 5 5 4 6 6 7 7 8 8 10 11 11 12 12 12 14 15 14 14 14 14 15 16 16 18 19 18 16 15 14 13 12 12 12 12 9 4 5 6 6 8 10 13 15 16 18 19 19 19 19 19 20 20 21 21
2 2 3 4 3 3 4 4 3 4 1 5 7 7 5 2 2 2 5 4 7 7 3 4 5 5 3 2 2 3 5 7 5 4 5 7 8 8 8 8 10 12 12 12 12 13 14 14 13 14 14 14 15 15 15 15 18 18 17 16 15 14 13 14 14 13 10 7 5 5 5 7 9 11 14 16 17 19 20 21 21 20 20 21 21 21
4 3 3 5 4 2 3 4 3 2 2 6 6 6 6 4 2 5 6 3 5 5 3 3 4 4 3 3 3 3 5 5 1 5 8 10 11 11 10 10 11 12 13 13 13 13 14 13 12 14 14 13 14 15 15 14 15 16 17 17 16 15 15 16 16 15 13 10 7 5 5 7 9 10 12 15 17 19 21 21 22 22 22 21 21 22
4 3 3 4 4 3 4 4 4 1 4 7 7 7 6 4 4 6 3 4 5 5 4 3 3 3 3 4 4 3 3 4 6 8 10 11 12 12 13 13 12 12 13 13 13 13 13 12 12 14 14 13 13 14 14 13 13 14 16 16 17 17 17 17 17 17 15 13 11 8 5 5 7 9 11 13 15 17 20 21 22 23 24 23 23 23
3 4 3 4 4 3 3 3 4 1 4 6 7 7 5 4 4 1 2 5 5 4 4 3 2 1 2 4 3 3 3 4 6 7 8 9 10 12 14 15 14 14 13 13 13 13 12 12 13 14 14 13 13 13 13 14 13 13 13 14 16 18 18 17 17 16 16 15 13 11 10 8 7 8 9 10 10 12 16 19 21 21 22 23 24 25
3 3 4 5 4 3 3 4 5 2 4 7 8 6 6 6 1 4 4 3 3 2 2 3 3 2 3 4 4 4 5 5 6 6 7 8 9 10 13 14 15 15 15 15 14 14 13 13 13 14 14 14 13 13 13 13 13 12 13 13 14 16 18 18 17 16 16 15 13 12 14 13 11 9 9 9 8 9 11 14 17 19 20 22 23 25
4 4 4 3 3 4 4 3 1 1 5 9 6 2 3 3 2 3 1 1 1 3 3 3 3 3 3 4 5 5 6 6 6 5 5 7 8 10 12 14 15 16 16 16 16 15 14 14 14 14 14 14 12 12 12 12 12 12 13 13 13 13 15 16 16 16 16 15 12 11 13 14 13 12 12 12 11 10 11 12 14 16 18 20 21 22
4 3 3 2 3 4 4 2 3 4 5 6 4 2 1 2 2 1 2 3 3 5 5 4 4 3 3 4 6 6 6 6 6 6 6 7 8 9 11 13 15 16 17 17 17 17 16 16 16 16 16 14 12 12 11 11 12 13 14 14 13 13 13 13 14 15 15 15 13 12 12 13 13 12 11 12 12 12 12 12 12 13 15 17 19 21
2 1 2 2 2 3 6 6 4 3 4 5 5 4 2 3 3 3 3 4 4 4 4 4 4 4 3 4 5 6 7 7 7 8 8 8 8 10 11 13 14 16 18 18 18 17 17 18 18 17 17 15 13 13 12 11 12 13 14 14 14 14 13 13 13 13 14 15 15 13 13 13 12 10 10 9 10 10 12 13 13 12 13 15 18 19
5 5 4 4 3 2 4 4 5 6 6 6 6 6 6 6 6 4 4 5 4 4 4 4 5 5 5 5 6 7 7 8 8 9 8 8 9 10 11 12 14 15 17 18 18 18 18 18 18 18 18 17 15 14 13 13 13 14 14 14 14 15 15 14 14 13 12 14 15 14 14 13 12 11 11 10 9 9 10 11 14 14 14 15 17 17
6 7 6 7 7 6 6 4 2 4 4 5 6 6 6 8 7 6 6 5 4 5 5 5 6 6 6 6 6 7 8 8 9 10 9 8 9 11 11 12 14 15 17 18 18 18 18 18 18 18 19 18 17 15 15 15 14 15 15 14 14 14 15 15 14 14 13 14 14 14 14 14 13 12 12 11 10 10 9 10 12 15 16 17 18 18
5 6 5 5 7 9 9 9 7 7 8 9 10 9 8 7 7 6 6 6 6 6 6 7 7 7 7 7 6 7 9 10 10 11 11 10 10 12 13 14 15 16 17 17 18 18 18 18 19 20 20 20 19 17 17 16 16 15 15 14 13 12 13 14 15 15 14 14 13 12 13 14 13 12 11 12 12 11 10 11 13 15 16 17 17 18
5 6 5 5 6 8 6 6 6 7 8 7 8 10 10 9 8 8 7 8 8 8 7 7 8 8 8 9 9 10 10 11 12 14 13 12 13 14 16 16 17 17 17 18 18 18 18 19 20 21 22 21 20 19 18 18 18 17 16 15 13 11 12 14 15 15 14 13 13 12 12 13 14 13 12 13 13 12 12 14 15 17 19 20 21 21
8 8 7 7 8 8 6 6 5 6 7 7 5 7 9 9 9 9 9 8 8 8 8 7 7 7 8 10 11 12 11 12 15 16 15 15 17 18 18 18 18 18 19 19 19 19 20 20 21 22 23 23 22 21 20 18 18 17 16 15 14 13 13 13 15 15 14 13 13 13 13 13 14 14 14 14 15 14 14 15 16 17 19 21 21 22
Wind_Direction
191 197 203 206 202 195 197 208 210 20 321 206 185 196 201 192 150 113 120 149 175 205 218 217 238 216 161 158 164 167 173 184 185 185 190 184 184 188 192 195 190 187 184 179 181 182 182 181 181 180 181 183 184 184 182 180 182 183 180 176 173 175 176 174 174 176 177 177 175 176 177 178 178 176 176 175 175 173 163 158 162 166 167 167 165 163
194 213 208 205 209 195 195 206 205 198 203 212 204 186 197 205 144 110 130 151 183 215 200 198 233 227 184 167 166 170 179 184 185 186 189 189 188 188 194 197 191 187 184 178 178 182 183 181 179 179 179 182 183 183 183 183 184 185 184 181 176 175 178 180 179 178 179 180 178 177 179 179 175 174 176 174 175 172 161 162 169 170 173 174 171 171
195 220 213 200 206 194 188 196 205 218 212 210 215 202 205 198 149 118 135 151 188 229 170 154 244 214 175 178 173 180 190 187 186 186 185 190 190 189 196 197 193 189 185 182 180 182 185 183 180 178 179 184 184 182 184 185 185 185 187 185 180 178 180 183 183 181 181 180 180 179 178 178 174 174 176 169 168 170 162 164 173 176 178 179 177 178
195 217 208 185 189 191 183 188 203 214 218 215 210 212 202 179 182 161 138 148 172 252 262 185 265 225 164 178 180 188 195 190 190 186 183 190 190 192 196 193 195 193 186 186 185 184 185 183 182 181 181 183 185 185 185 185 186 186 188 186 184 182 181 183 184 183 181 178 178 178 175 175 172 171 174 171 170 175 172 171 176 180 182 181 180 181
205 201 184 175 185 194 186 185 199 206 209 212 213 224 201 169 207 203 116 159 192 214 236 263 251 218 165 182 183 186 193 192 191 188 187 191 191 195 197 191 192 194 191 190 188 187 186 185 184 183 184 185 186 187 187 186 187 188 189 187 185 185 184 184 183 181 179 176 177 178 176 177 176 176 180 183 183 183 185 185 183 184 184 182 180 181
209 159 161 182 190 197 195 190 199 208 210 207 211 226 231 165 201 189 137 214 222 193 187 252 248 194 161 194 181 171 186 191 188 191 193 193 191 195 200 195 190 190 195 197 193 189 188 187 186 184 186 189 189 189 189 188 188 188 188 186 186 187 187 186 183 181 180 179 182 185 186 187 186 188 190 192 191 185 187 190 184 181 182 183 180 180
192 159 176 193 192 196 202 200 199 207 222 210 192 203 221 233 219 219 216 226 240 191 142 244 262 197 169 180 158 154 173 181 181 193 197 195 196 198 201 199 194 193 194 196 196 193 191 188 188 187 188 191 192 190 190 190 190 189 188 186 186 188 188 188 184 183 184 185 187 190 193 194 193 195 195 196 195 186 185 187 181 179 180 184 183 180
171 165 184 193 193 197 203 203 191 199 228 197 131 179 209 224 230 226 229 232 252 318 156 209 251 253 185 133 101 139 153 159 171 191 201 200 204 205 206 203 200 200 195 192 194 195 194 191 190 190 190 193 194 190 190 191 191 189 188 187 187 188 188 188 186 185 188 190 191 193 195 198 200 201 197 195 197 187 183 184 182 182 180 183 186 181
170 181 181 185 195 200 202 203 182 190 226 201 110 186 214 217 237 232 229 232 239 281 232 195 192 246 206 121 99 125 126 128 151 182 202 204 206 208 209 207 205 205 200 196 196 196 195 193 192 192 191 194 195 192 191 192 191 189 189 188 187 188 188 188 187 187 192 194 193 194 196 198 201 205 202 197 198 193 186 187 186 185 182 182 188 187
172 196 185 185 199 203 200 203 184 188 220 215 134 211 218 207 232 233 230 227 206 232 237 195 183 230 205 133 128 105 93 80 89 144 201 205 207 208 209 207 204 204 203 202 200 198 198 194 193 192 191 193 196 194 191 191 191 188 188 188 187 189 189 189 189 189 194 195 195 196 197 198 199 202 204 200 199 197 194 193 190 190 189 186 189 190
140 189 198 199 220 230 197 193 189 199 216 217 185 204 201 192 206 216 223 224 211 223 231 209 196 222 216 118 98 83 65 30 24 28 14 315 216 210 211 209 206 203 202 203 200 199 201 198 194 193 192 193 194 194 191 191 190 187 186 187 187 189 189 188 189 191 195 196 198 201 199 199 198 198 201 201 200 200 199 199 195 195 196 194 193 190
152 184 186 177 334 297 203 186 191 208 213 211 205 200 188 178 184 201 200 207 220 222 221 208 195 220 223 112 80 81 59 31 20 15 9 358 323 246 223 215 209 207 202 201 198 196 201 199 196 196 195 193 193 193 191 191 190 187 187 186 186 188 189 188 190 192 196 198 201 204 203 202 201 200 202 203 204 203 204 204 200 199 200 202 201 195
167 169 149 134 140 217 216 202 184 199 208 207 204 197 190 177 178 199 193 195 218 222 208 197 195 216 194 90 75 68 52 34 27 17 11 0 345 324 272 231 212 209 206 203 200 195 198 197 196 198 196 194 193 193 192 192 191 188 187 186 185 187 189 189 191 193 195 199 202 205 205 205 204 204 205 206 207 207 207 207 204 202 203 205 207 203
156 144 157 168 156 183 225 215 186 186 197 201 202 195 193 187 183 196 195 192 209 206 180 179 194 198 136 90 66 66 52 34 34 27 21 13 353 334 301 255 218 209 207 206 203 198 197 195 195 197 196 194 194 194 193 192 192 190 187 187 186 187 189 189 191 193 196 199 202 204 205 206 205 206 208 209 210 209 208 209 207 207 207 209 211 210
176 154 166 176 131 161 223 235 286 221 192 197 207 201 204 210 196 195 197 193 196 191 171 168 192 204 161 113 72 73 62 43 38 31 30 25 9 357 339 287 221 208 207 208 207 204 201 196 194 195 194 194 194 194 194 194 192 190 187 187 187 188 188 189 191 192 195 199 201 203 204 206 206 207 209 211 212 212 211 211 210 210 212 214 214 213
186 129 103 89 53 341 236 307 309 262 195 187 204 209 212 227 223 213 207 196 193 186 175 176 176 130 131 117 87 72 64 51 40 31 30 27 20 18 17 8 335 222 209 208 207 209 207 199 194 194 194 194 193 194 195 195 192 190 188 187 188 189 188 189 191 192 195 198 199 201 203 205 206 207 210 211 212 213 213 213 211 211 214 216 216 214
182 116 105 120 115 44 349 333 272 265 221 177 196 209 195 277 263 248 197 189 202 196 178 182 150 107 134 130 82 57 52 44 34 29 27 24 23 24 23 14 1 345 293 237 218 212 209 203 199 196 196 194 193 194 195 195 193 191 189 188 189 190 190 190 191 192 195 196 198 201 202 204 206 208 211 213 213 214 214 215 215 214 215 216 218 218
221 126 120 139 129 102 29 273 178 268 279 213 196 190 145 44 272 263 217 184 199 199 175 185 171 140 168 169 57 30 28 28 23 25 25 23 23 21 19 15 5 354 339 321 276 222 206 206 206 201 200 199 195 194 194 194 194 192 192 191 190 191 192 193 194 195 195 195 197 200 202 205 207 210 213 215 215 216 216 216 217 217 218 217 218 220
302 132 126 138 135 126 150 217 176 165 261 300 272 168 169 216 213 218 230 193 194 203 186 184 178 145 144 127 37 20 18 16 14 21 23 21 20 17 15 13 9 3 349 335 311 251 210 205 208 205 205 204 200 198 196 194 194 195 196 196 195 194 194 195 197 197 196 197 198 201 203 206 208 211 213 215 216 217 217 217 216 217 218 217 217 218
289 213 135 135 152 158 168 232 186 158 175 235 244 195 207 242 215 206 223 210 203 209 193 181 179 140 75 49 30 27 25 16 14 22 23 20 19 16 15 12 10 9 1 347 313 260 227 207 206 208 208 207 206 202 198 196 196 197 199 199 200 199 197 198 198 196 196 199 201 201 202 204 206 209 211 212 213 215 217 217 217 218 218 218 218 217
261 239 154 134 160 184 160 50 31 33 103 205 210 196 191 220 247 228 220 225 241 225 199 191 187 133 83 52 33 42 41 27 24 26 26 22 19 17 18 15 14 14 10 6 352 278 240 216 205 207 208 212 214 207 200 199 199 200 202 202 203 202 201 202 202 199 198 199 201 201 200 202 204 206 208 210 210 213 216 217 218 220 218 218 218 218
295 246 191 153 159 156 100 61 35 16 6 356 237 197 202 221 224 214 208 210 245 264 238 207 182 117 87 56 51 57 52 45 36 31 33 28 21 20 20 17 19 18 16 15 15 14 2 288 214 205 203 210 216 211 204 202 201 202 203 203 204 203 204 205 204 202 200 200 201 201 202 202 202 204 206 208 210 212 215 217 219 219 218 218 219 219
326 270 179 131 112 101 102 83 33 15 2 16 40 25 322 270 245 231 220 204 210 235 279 243 173 111 100 87 76 75 67 61 50 41 41 35 26 23 20 18 20 19 19 20 20 22 23 19 17 14 215 211 213 214 211 207 206 206 204 204 204 204 205 206 205 203 200 200 201 202 202 203 203 204 205 207 211 213 216 217 218 217 217 219 220 219
313 261 129 113 103 105 125 135 47 333 271 143 60 31 353 341 322 293 312 288 218 200 228 238 185 118 126 171 95 90 77 70 63 52 48 43 32 25 23 21 20 19 19 23 25 25 25 24 23 19 9 341 222 214 215 212 212 212 209 206 206 206 206 205 204 203 200 200 203 203 203 203 203 205 206 209 213 214 216 217 216 216 216 219 220 220
328 286 176 156 154 155 167 177 178 189 202 108 68 38 20 17 344 295 306 277 236 197 283 247 189 114 143 170 128 100 83 70 64 60 53 49 40 29 26 24 23 22 21 23 26 27 26 25 23 17 11 9 7 235 224 221 218 217 213 210 210 208 208 207 204 202 201 202 204 203 204 204 205 206 208 211 215 216 217 217 216 215 215 218 220 220
326 6 325 224 192 184 184 178 162 152 139 106 67 47 33 19 356 317 244 219 217 135 340 279 135 117 138 150 129 106 91 74 64 62 58 54 50 42 34 27 24 25 25 26 26 26 27 25 21 17 13 11 15 10 327 243 225 222 217 214 214 211 209 211 210 205 203 204 205 205 205 205 206 208 209 212 216 217 218 218 218 217 216 217 218 219
291 47 9 354 13 66 95 76 44 42 135 120 72 52 36 18 0 327 250 217 214 164 105 60 113 135 138 137 129 108 87 75 63 56 55 51 50 50 44 37 34 31 27 28 29 27 25 23 20 17 14 11 12 12 8 0 281 242 227 219 218 213 209 211 213 211 207 207 207 206 206 206 206 208 210 211 215 217 219 220 220 220 219 217 217 218
202 111 37 33 48 56 66 71 56 43 80 86 66 50 35 20 3 345 358 53 350 245 146 91 124 146 136 128 125 101 78 72 60 50 48 45 45 47 46 44 42 36 30 27 27 26 23 20 18 16 14 13 11 10 11 14 10 351 304 244 228 219 213 211 212 212 210 210 211 209 208 210 209 209 210 210 212 214 217 219 221 221 221 219 218 219
253 103 68 73 84 74 64 65 59 52 69 72 44 46 36 17 8 21 51 49 360 352 117 110 122 139 134 130 113 85 65 63 60 50 44 42 44 45 43 43 42 37 33 27 23 22 20 18 15 12 13 14 12 10 9 9 9 7 359 331 269 237 224 215 212 213 211 211 214 213 210 210 210 209 209 208 208 210 213 217 218 219 220 220 220 222
317 84 96 141 116 94 69 64 54 28 33 126 86 74 48 8 27 38 31 27 16 45 102 118 122 121 122 119 103 90 71 63 61 51 44 39 38 41 41 41 41 37 34 29 23 20 17 15 13 9 10 12 12 10 9 6 2 358 354 348 325 277 242 226 218 217 214 211 214 214 210 208 209 208 207 207 207 208 210 213 216 217 218 218 220 222
300 113 138 203 152 120 82 69 63 357 329 266 237 130 154 178 195 198 195 186 187 145 125 136 146 134 117 108 110 110 86 64 50 39 42 37 31 37 41 39 37 35 32 29 26 21 16 13 11 8 6 6 6 7 7 4 360 356 352 337 318 302 268 242 227 223 222 219 217 215 210 206 205 205 205 205 206 208 210 212 215 217 217 217 219 220
286 145 165 225 210 143 122 150 227 315 275 245 223 192 185 200 193 162 140 160 221 157 150 179 197 144 118 123 130 123 109 89 47 28 34 35 28 31 37 36 34 31 28 25 24 22 18 14 10 7 5 1 360 0 359 357 357 357 352 340 320 292 273 257 237 227 226 227 226 220 214 209 204 202 203 204 206 208 211 213 215 216 217 218 220 220
265 164 169 222 233 140 132 209 274 253 241 226 176 139 166 190 167 143 140 133 33 251 188 193 139 95 98 129 134 113 113 104 60 31 26 31 29 28 32 34 31 29 28 23 19 20 18 15 11 5 1 360 358 354 350 350 353 350 344 338 329 306 280 268 258 247 235 229 228 226 221 217 210 204 204 207 207 208 210 212 216 219 221 223 224 224
170 228 186 235 249 145 138 207 250 239 227 145 94 86 80 91 185 191 162 136 135 251 4 53 78 92 95 106 96 73 43 54 74 61 44 37 28 24 29 31 27 26 26 21 18 17 13 11 11 5 359 358 357 353 349 349 351 348 342 339 337 325 300 279 275 281 260 234 228 227 223 221 219 214 211 211 209 209 210 212 216 221 224 227 229 229
181 218 185 221 253 154 143 206 232 231 153 99 94 95 77 40 308 154 127 126 146 152 112 96 101 105 88 52 63 42 18 49 133 121 63 49 36 24 23 26 24 21 20 18 17 15 10 6 6 5 1 358 355 353 352 350 349 348 346 345 346 342 328 309 282 275 272 235 224 226 224 224 227 226 222 218 213 211 211 211 216 220 222 224 227 229
285 240 197 210 242 191 180 211 223 112 118 132 129 128 135 182 199 184 175 171 172 181 176 151 126 118 123 125 91 342 340 1 189 174 88 59 45 33 21 17 17 16 14 12 11 10 10 6 2 1 360 357 355 354 352 350 349 348 346 346 350 354 354 351 341 319 312 153 204 236 232 230 232 231 228 223 217 215 213 213 217 219 218 222 226 229
304 285 245 211 219 240 236 221 171 116 166 178 161 142 150 148 141 247 251 173 161 179 206 172 140 141 189 195 170 318 321 285 212 162 100 64 42 33 23 12 6 5 7 4 2 4 5 2 359 356 355 357 359 355 351 350 349 347 346 345 347 351 357 0 360 1 10 31 303 302 261 239 235 232 231 228 224 222 220 218 219 218 217 220 224 227
298 295 298 267 212 243 274 253 213 223 209 155 124 113 96 63 75 359 300 209 165 164 196 193 164 160 197 218 227 292 291 254 219 148 84 44 24 17 11 5 356 354 357 355 351 354 357 356 354 351 350 355 0 356 350 349 348 347 346 347 344 344 349 353 355 3 10 346 311 314 285 254 245 239 238 237 234 232 230 226 224 221 220 221 223 226
251 261 278 273 243 226 260 261 241 244 183 108 115 123 128 120 120 219 258 227 156 138 155 205 186 173 199 237 266 282 264 239 199 110 44 7 3 357 350 351 347 344 345 343 344 349 347 344 344 344 346 353 356 353 350 350 349 348 347 346 343 344 348 349 347 348 347 336 318 302 281 265 255 249 248 245 241 241 239 235 231 228 226 225 225 228
218 223 230 248 249 230 247 259 259 263 101 115 132 137 128 122 179 231 238 204 140 138 151 195 194 181 202 244 263 265 256 248 272 22 360 343 343 339 334 336 335 334 334 333 339 345 338 333 336 339 342 349 349 347 349 351 349 347 346 343 341 343 346 344 341 338 333 328 318 294 271 257 251 249 251 249 247 245 244 242 239 236 231 228 230 234
211 219 230 249 249 224 228 249 259 256 104 129 150 143 131 155 219 240 233 126 138 158 149 163 193 187 205 243 260 267 275 291 316 335 335 329 327 324 323 325 324 324 326 327 332 334 327 326 331 331 332 339 339 340 345 347 345 344 343 341 339 340 340 337 334 332 330 327 321 309 296 275 257 249 249 252 252 251 248 244 241 239 234 231 231 233
212 208 221 242 249 242 239 254 260 251 108 136 154 141 151 209 232 226 111 119 141 152 144 172 216 201 220 252 271 281 290 300 305 310 314 317 318 316 317 320 322 322 323 324 326 324 320 322 324 322 324 329 332 335 339 339 339 338 337 337 337 334 332 331 329 328 326 325 323 319 316 308 292 273 264 259 258 261 259 251 245 241 236 233 232 232
207 211 219 212 216 242 241 235 252 270 112 138 154 154 187 223 215 85 120 141 142 155 186 226 245 254 264 274 285 291 295 298 297 300 306 309 310 312 315 318 319 320 321 321 320 321 321 318 315 314 318 321 324 328 330 330 332 330 327 330 332 329 328 328 327 324 323 324 328 326 317 308 301 295 287 276 266 264 262 256 250 242 234 231 231 233
201 223 245 209 190 222 232 211 209 76 122 150 170 191 212 205 104 81 158 205 215 238 253 262 259 258 277 288 291 293 296 295 294 299 304 305 308 311 312 314 315 315 316 316 317 320 320 315 311 310 311 312 314 318 320 321 321 319 318 321 324 324 324 325 325 323 321 322 326 322 311 305 300 295 287 282 281 275 260 251 250 245 237 231 230 232
198 224 304 301 217 241 276 306 67 84 130 168 209 282 296 168 155 179 274 286 274 262 264 270 268 259 258 275 286 289 289 292 300 306 305 305 308 309 309 310 311 310 311 311 312 315 314 311 308 307 304 304 306 307 307 307 308 308 310 314 317 319 319 319 321 320 317 317 317 311 305 304 302 297 286 276 275 277 270 258 252 251 246 239 233 232
216 234 307 287 247 267 277 266 241 229 212 206 228 243 221 206 205 213 254 268 267 265 258 257 270 274 259 262 275 281 288 297 302 304 306 307 306 306 307 307 306 306 307 307 308 311 311 308 305 304 303 302 301 300 297 295 296 300 303 306 309 312 314 316 317 314 312 311 309 306 305 305 302 302 297 283 269 269 271 266 256 252 251 247 242 238
206 198 216 241 243 255 256 233 225 243 241 231 236 232 217 222 227 228 249 259 257 256 250 246 258 261 254 256 265 274 286 296 298 300 305 306 305 306 306 304 304 304 303 304 305 306 305 303 302 301 301 301 300 298 294 290 289 292 296 298 301 306 310 313 312 309 309 308 306 307 306 304 306 308 304 296 282 272 272 271 265 258 253 249 248 245
188 182 210 235 233 238 256 261 243 243 242 241 245 238 224 226 229 226 232 240 240 239 239 242 247 250 252 257 264 275 286 291 296 300 303 304 305 307 305 302 302 300 299 299 300 300 299 298 297 298 298 298 298 297 294 288 285 286 289 290 293 299 305 307 307 307 307 305 305 306 303 300 304 308 303 298 293 286 280 278 272 265 257 250 247 247
135 164 205 232 234 240 252 259 249 241 240 235 230 232 236 236 228 220 219 222 226 228 230 234 236 242 257 268 274 282 287 290 294 299 301 303 304 304 303 303 300 297 296 296 295 295 293 292 293 294 293 293 293 294 292 287 283 283 283 282 280 285 293 299 302 303 304 303 302 301 300 299 299 300 301 298 294 288 281 275 273 272 269 264 257 252
166 212 228 231 242 246 248 255 255 255 260 249 222 219 226 227 223 221 216 215 221 222 223 229 232 238 253 265 272 278 283 288 293 296 298 300 301 302 302 302 299 296 294 293 291 290 288 287 289 290 289 290 290 288 287 284 280 278 277 275 270 269 277 286 294 297 298 300 300 300 303 304 301 300 303 300 294 293 289 282 277 273 272 272 272 269
208 239 244 236 251 268 281 290 286 270 275 285 268 231 223 218 218 218 216 216 220 216 217 226 236 245 257 265 272 278 284 289 293 296 298 298 300 302 302 300 298 296 294 292 289 287 286 285 285 286 286 287 287 285 283 281 278 274 271 268 263 261 263 270 279 287 291 293 297 300 303 303 301 301 302 298 295 297 296 289 285 281 275 274 278 281
Height
782 790 791 787 783 780 780 775 771 772 773 772 773 777 778 777 780 779 781 777 775 790 793 783 781 779 782 785 782 783 786 789 793 794 795 796 797 800 800 799 798 799 799 800 804 808 811 814 817 820 822 825 828 830 832 834 837 839 840 842 844 846 848 849 851 853 854 855 857 858 859 860 861 862 864 864 865 866 867 868 869 869 870 871 871 872
784 790 785 779 775 773 775 773 774 778 779 779 776 778 779 777 779 778 780 776 771 786 789 778 780 780 775 777 777 780 786 788 789 793 795 795 797 799 800 799 798 797 797 798 803 806 809 812 815 818 821 823 826 828 831 833 835 838 839 841 843 844 847 848 850 852 853 855 856 857 858 859 860 862 863 864 865 866 867 868 869 869 870 871 871 872
791 788 777 771 770 770 774 775 778 781 780 781 777 779 781 775 777 780 778 775 772 780 783 778 781 778 771 772 774 778 781 782 782 785 790 793 796 799 800 799 798 798 798 798 801 804 807 810 813 816 819 822 824 827 830 832 834 837 838 840 842 843 845 847 850 851 853 854 855 856 857 858 860 861 862 863 864 865 866 867 868 869 870 871 872 872
792 782 769 768 771 774 778 779 780 783 782 781 778 780 781 774 778 785 782 777 775 777 779 780 782 775 770 772 773 774 774 775 777 779 785 789 792 796 796 796 796 797 798 799 799 801 804 807 810 814 817 820 823 825 827 830 832 835 837 839 841 842 844 846 848 850 852 854 855 856 857 858 860 861 862 863 864 865 866 867 868 869 870 871 872 872
781 771 764 770 775 776 780 782 782 785 784 780 778 778 777 775 777 780 781 779 776 776 775 780 787 778 772 777 777 772 771 774 775 778 784 787 788 791 792 792 794 794 795 797 798 798 801 804 808 811 815 818 820 823 825 827 830 832 835 837 839 841 843 845 847 849 851 853 854 856 857 859 860 861 862 863 864 865 866 867 867 869 869 870 871 872
774 767 767 775 778 776 780 783 782 783 783 780 778 774 773 777 778 779 781 782 783 785 778 779 795 792 777 777 776 772 775 777 776 779 783 785 786 790 791 790 791 793 794 795 795 796 798 801 805 809 813 815 818 820 823 825 828 830 833 836 838 840 842 844 846 848 850 852 853 855 856 858 859 860 861 862 863 864 865 866 867 868 869 870 871 872
769 768 770 776 778 777 780 782 779 778 782 783 775 770 775 778 780 781 782 785 788 788 779 777 794 797 783 778 774 772 779 780 779 781 782 783 784 786 789 788 789 792 793 793 793 793 795 798 802 806 810 812 815 818 821 824 826 828 831 834 836 839 841 843 845 847 849 850 852 854 855 857 858 859 860 861 862 863 864 866 867 868 869 870 871 872
768 772 774 774 776 779 782 782 776 775 783 781 770 770 777 779 781 782 782 786 782 779 780 775 783 792 787 784 777 773 782 785 784 786 782 781 782 782 784 785 787 788 787 789 791 791 792 795 799 803 807 810 812 815 819 821 824 827 829 832 834 837 839 841 843 845 847 849 851 853 854 856 857 858 859 861 862 863 864 865 866 867 868 869 870 871
767 775 776 774 778 780 778 775 770 775 782 775 768 773 775 777 780 778 780 784 779 786 793 779 779 794 792 787 782 777 785 790 788 786 783 780 780 780 781 781 782 783 783 785 788 789 789 792 796 800 804 808 810 813 816 819 822 825 828 830 833 835 838 840 842 844 846 848 850 851 854 855 856 858 859 860 861 863 864 865 866 867 868 869 869 871
767 768 767 771 776 775 771 767 765 775 779 769 769 775 774 776 779 778 782 782 783 800 802 781 780 793 792 787 785 785 791 793 788 782 778 777 776 777 778 777 778 779 781 782 784 786 788 790 794 797 801 805 807 810 813 817 820 823 826 828 831 833 836 838 840 842 844 847 849 850 852 854 855 857 858 859 861 862 863 864 865 866 867 868 869 870
764 762 762 767 770 766 763 763 765 771 772 768 773 778 779 779 779 781 781 779 795 810 797 777 776 784 795 797 790 791 795 791 787 784 780 776 774 775 775 774 776 776 778 779 780 785 788 789 792 795 798 801 805 808 811 814 817 820 823 826 829 831 834 836 838 841 843 845 848 849 851 853 854 856 857 859 860 861 862 863 864 866 867 868 868 869
768 769 767 766 766 764 765 768 768 767 767 771 777 779 786 789 788 792 789 791 811 813 787 772 772 778 797 805 792 789 790 786 787 788 786 783 778 775 773 772 772 773 775 776 778 782 786 788 790 792 795 798 802 805 807 811 814 817 821 823 826 829 831 834 836 839 841 844 846 848 850 851 853 855 856 858 859 860 861 862 864 865 866 867 868 868
771 770 768 769 768 765 772 775 774 772 770 775 777 780 793 803 807 812 808 807 812 800 776 769 775 783 794 799 791 789 789 786 787 786 786 786 782 779 774 770 770 770 772 774 775 779 781 783 787 789 793 796 799 802 805 808 811 814 818 820 823 826 829 832 834 836 839 841 844 846 848 850 852 854 855 857 858 859 861 862 863 864 865 866 867 867
777 775 770 772 772 767 770 774 777 779 775 776 777 781 793 803 816 823 813 809 807 792 775 770 778 790 796 796 790 788 790 786 784 784 783 784 782 780 774 769 768 768 770 772 773 775 776 778 782 786 790 793 796 800 802 805 809 811 815 818 820 824 826 829 832 834 837 839 842 844 846 849 850 852 854 855 857 858 860 860 862 863 864 865 866 866
783 788 777 773 774 770 768 769 771 771 771 773 767 770 782 785 797 809 803 802 802 789 781 781 786 789 794 799 790 784 786 784 783 783 781 782 780 776 772 767 766 767 768 770 771 773 773 774 779 782 786 790 793 797 800 803 806 809 812 815 818 821 824 827 829 832 834 837 840 842 844 847 848 850 852 854 856 857 858 859 860 862 862 864 865 865
776 785 776 771 772 769 770 769 764 766 771 768 759 768 778 769 771 782 780 778 781 783 787 787 786 782 784 790 784 782 786 784 786 785 782 785 781 776 776 772 769 768 766 768 771 773 772 772 776 780 782 786 790 794 797 800 803 806 809 812 815 818 821 824 827 829 832 834 837 839 842 844 846 849 850 852 854 855 857 858 859 860 862 863 864 865
778 783 776 772 772 769 772 770 764 769 773 767 767 774 770 757 761 776 780 771 771 786 789 779 784 790 790 791 785 784 789 788 789 789 786 787 784 781 781 779 775 773 769 767 768 769 769 771 774 777 780 783 786 790 793 797 800 803 807 809 813 816 819 821 824 826 829 832 834 837 839 842 844 846 848 850 852 854 855 857 858 859 860 861 863 864
776 784 778 773 776 773 769 769 766 766 766 768 774 768 760 764 768 774 786 786 785 795 787 772 784 797 796 797 794 790 794 796 793 792 791 789 787 786 784 782 780 777 773 770 766 765 766 770 773 775 778 780 783 787 790 794 798 801 804 807 810 813 816 819 822 824 827 829 832 834 836 839 841 843 845 848 850 852 853 855 856 857 859 860 861 862
771 784 783 773 776 774 767 770 772 766 762 767 768 757 762 782 783 779 787 792 794 797 786 776 782 792 798 803 803 801 802 803 798 795 795 794 792 791 787 785 783 780 777 774 769 765 764 767 771 774 777 779 781 785 788 791 795 798 801 804 807 810 813 816 819 821 824 826 829 831 833 835 838 840 843 845 848 850 851 853 854 855 857 858 859 860
769 781 787 775 771 772 769 772 777 774 766 764 765 761 763 772 775 777 776 775 783 788 786 787 789 798 809 809 807 808 807 806 804 800 800 799 797 795 792 789 786 782 780 776 771 767 764 765 769 772 776 778 781 783 785 788 792 795 798 802 804 807 810 813 816 818 821 824 826 828 830 833 835 838 840 843 845 847 849 850 852 853 855 856 857 858
771 774 785 780 771 773 780 782 784 782 774 769 769 769 770 768 766 772 768 762 770 776 779 790 797 806 814 810 806 807 807 807 806 804 804 803 800 798 795 793 789 785 782 777 772 768 765 764 767 771 776 779 781 782 783 786 789 792 795 798 801 804 808 810 813 816 818 821 823 825 828 830 832 835 838 840 842 844 846 848 850 851 853 854 855 856
777 772 775 779 778 782 792 790 787 787 781 775 772 771 774 771 770 782 783 769 765 770 769 774 796 816 816 808 806 805 806 807 805 805 806 805 803 801 798 795 792 789 784 780 776 772 770 768 768 771 776 780 781 780 781 784 786 789 792 795 798 801 804 807 810 813 816 818 821 823 825 828 830 832 835 837 840 842 844 846 847 849 850 852 853 854
783 775 775 783 785 788 793 790 787 788 783 779 777 776 775 772 773 783 787 776 768 772 768 765 793 822 815 804 805 803 804 806 804 805 806 806 806 803 801 798 794 792 787 784 781 778 776 775 772 773 775 777 778 779 781 783 785 787 789 791 795 797 800 803 806 810 813 816 818 820 823 825 828 830 832 835 837 839 841 843 844 846 848 849 850 851
783 781 785 794 793 790 790 787 786 785 782 782 782 781 779 778 779 779 780 777 770 774 776 772 796 823 817 805 803 799 801 804 803 805 806 808 808 805 804 801 798 796 792 788 786 783 781 781 778 778 778 777 778 780 781 783 784 786 788 790 792 794 797 800 803 806 809 812 814 817 820 822 825 827 829 831 834 835 837 839 841 843 844 846 847 849
788 787 789 797 801 801 799 795 793 788 784 786 788 787 785 783 783 781 779 778 776 781 782 776 795 822 818 805 802 799 802 804 803 805 807 808 810 808 806 804 801 800 797 793 790 788 786 786 785 785 784 782 781 781 782 783 784 785 786 789 790 792 795 797 800 803 805 808 811 814 817 819 822 824 826 828 830 832 834 836 838 840 841 843 844 846
792 793 793 796 799 803 805 804 800 792 787 790 791 791 790 786 786 785 781 781 786 790 787 784 802 824 817 805 804 803 803 807 806 806 807 808 810 810 809 808 806 803 801 799 796 794 793 792 792 791 789 788 786 785 784 784 784 785 786 788 789 791 795 797 798 800 802 805 808 810 813 816 818 821 823 825 827 829 832 833 835 837 838 840 842 843
794 797 799 800 798 799 805 806 799 791 790 796 797 796 794 791 789 786 782 786 788 788 794 799 806 818 818 809 807 806 806 810 810 809 809 809 809 810 810 810 809 807 805 803 801 800 799 798 797 796 794 793 790 789 788 786 786 786 786 787 788 790 794 797 798 799 800 803 805 807 810 812 815 817 820 822 824 827 829 831 832 834 835 837 839 840
798 801 802 803 803 801 803 804 799 795 797 801 802 800 798 796 793 790 790 795 792 790 803 809 803 807 816 812 808 810 810 811 812 812 812 811 809 810 810 809 809 809 808 806 805 804 804 803 802 801 799 797 795 793 791 789 788 787 786 787 788 789 792 795 796 798 799 801 803 805 807 809 812 814 817 819 822 824 826 828 830 832 833 835 836 837
800 806 805 804 806 805 803 803 801 800 802 804 803 803 803 800 799 799 798 799 797 798 806 811 805 805 810 809 809 812 811 812 813 813 812 811 810 810 809 809 809 809 810 810 809 808 808 807 806 805 804 802 800 797 795 792 791 790 789 789 789 789 790 792 795 796 798 800 802 803 805 807 810 812 815 817 819 821 823 825 827 829 830 832 833 835
803 810 809 805 807 809 806 806 805 804 805 805 803 804 804 803 802 803 802 798 800 803 803 805 809 808 806 808 811 812 810 810 812 812 813 813 812 811 811 810 811 811 811 812 813 812 811 810 809 808 807 805 804 802 799 797 795 793 791 791 790 790 790 791 793 795 796 798 800 802 804 806 808 810 812 814 816 818 820 822 824 826 827 829 830 832
806 814 813 806 809 812 810 808 807 807 807 807 805 804 805 806 804 804 803 801 801 804 802 804 811 812 808 808 810 811 810 810 811 814 815 815 814 812 813 813 813 813 813 814 815 815 814 813 812 810 808 807 807 805 803 802 799 797 795 793 792 791 791 791 792 794 795 797 798 800 802 804 806 808 810 812 813 815 817 819 821 823 825 826 827 829
806 813 814 810 810 813 812 811 809 807 807 807 807 806 806 806 805 803 803 803 802 804 806 807 808 808 808 809 810 812 812 812 814 816 817 817 817 815 815 816 815 815 815 815 815 816 816 816 814 813 811 810 809 808 807 805 803 801 799 796 794 793 792 791 791 792 794 795 796 798 800 802 803 805 807 809 811 812 814 816 819 821 822 823 824 826
807 810 811 810 810 811 813 813 810 809 810 809 805 805 806 806 805 805 807 807 806 805 806 805 805 807 810 810 811 813 813 813 816 818 819 820 819 817 817 817 817 817 817 817 817 816 817 817 816 816 814 813 811 810 808 807 804 803 801 799 796 794 792 791 791 791 791 793 795 796 798 800 801 802 803 805 807 809 811 814 816 818 819 821 822 824
810 809 808 807 808 812 814 813 812 813 813 810 805 804 807 808 807 808 808 808 808 806 804 804 806 810 812 811 812 816 816 815 816 818 820 821 821 820 819 818 819 819 818 818 818 818 818 818 818 817 816 814 813 811 809 807 805 804 801 799 797 795 793 792 791 791 790 790 792 794 795 797 799 800 801 802 804 806 808 810 812 814 816 818 820 821
812 810 810 809 807 809 811 814 819 819 812 808 806 805 807 808 807 808 810 810 809 807 807 810 812 814 815 814 814 816 817 816 817 817 818 821 823 823 822 821 821 820 820 820 819 819 819 818 818 818 817 815 813 811 810 808 806 804 802 800 798 796 793 792 792 791 790 789 789 791 793 795 796 798 799 800 802 804 805 807 808 810 812 814 816 817
812 810 810 810 808 808 810 813 817 818 812 808 808 807 808 809 809 811 815 814 811 809 810 812 816 819 820 818 816 816 816 815 815 815 818 821 823 823 824 823 822 822 822 821 820 820 820 819 819 818 818 817 815 813 811 809 807 806 803 801 800 797 795 793 792 791 789 788 789 790 791 792 794 795 797 798 799 800 802 803 804 806 808 810 812 813
814 812 810 811 811 810 808 804 806 812 812 810 810 809 809 810 811 813 815 812 809 810 810 812 819 823 822 820 819 818 816 815 815 816 818 821 823 823 824 824 823 823 823 822 822 822 821 821 821 819 818 817 816 814 812 811 809 807 805 803 801 799 797 795 794 792 791 790 791 791 791 791 792 793 794 796 797 798 799 800 801 803 805 806 808 809
816 815 814 814 812 810 809 807 809 815 814 811 811 811 810 811 811 813 816 813 809 810 812 813 819 824 824 822 820 820 820 819 817 818 820 821 822 823 824 824 824 824 823 823 823 822 822 822 821 820 818 817 816 815 813 812 811 808 806 805 802 800 799 798 797 795 793 792 792 791 791 791 792 792 793 794 795 796 797 797 798 799 801 802 803 804
819 817 815 815 812 810 813 814 814 815 814 812 812 812 812 812 811 815 820 816 810 812 816 815 817 821 824 824 823 823 823 818 815 819 823 822 821 823 824 824 825 824 824 823 822 822 822 822 821 820 819 817 817 816 814 813 811 809 807 805 803 802 800 799 798 797 796 794 792 791 791 791 791 791 792 792 793 794 794 795 796 797 798 799 799 800
821 817 816 817 813 811 815 815 809 807 809 810 811 811 811 811 814 820 825 821 816 817 818 817 818 820 823 825 825 825 823 817 814 820 823 821 821 823 823 824 825 825 824 823 822 823 823 822 821 820 818 817 817 816 814 813 812 810 808 806 804 802 801 800 799 798 797 795 793 792 791 791 790 790 790 790 791 791 792 793 793 794 795 796 797 797
821 818 817 817 812 810 816 816 808 803 805 808 810 810 810 813 819 823 823 822 821 820 819 819 819 820 823 826 825 824 822 819 819 822 822 821 822 823 823 824 824 824 824 823 823 823 822 821 820 819 818 818 817 816 815 814 813 812 810 807 805 803 802 801 799 798 797 795 793 792 791 789 789 789 788 788 788 789 789 789 790 791 792 793 794 794
822 821 819 819 815 811 811 813 811 806 805 806 809 810 813 818 821 821 819 819 819 819 820 821 821 821 823 825 824 824 824 823 824 824 824 824 825 824 823 823 823 823 823 823 823 823 821 820 820 819 818 817 817 816 815 814 813 812 811 809 807 805 803 802 800 798 797 795 793 792 790 789 788 787 787 787 787 787 787 787 787 788 789 790 791 791
818 819 818 814 814 814 814 818 820 816 809 807 811 814 816 817 817 817 819 820 818 819 821 822 821 822 824 824 824 825 825 825 826 826 826 827 826 825 824 823 822 822 822 822 822 822 821 820 819 818 817 816 816 815 815 814 813 812 811 810 809 806 804 802 801 799 797 795 793 792 791 790 788 786 786 786 785 785 785 785 786 786 786 787 788 788
815 816 813 807 808 813 816 816 815 812 808 808 810 811 812 812 813 815 818 817 817 819 821 821 821 822 823 824 824 825 825 826 826 826 827 827 826 825 825 824 823 822 821 821 821 820 820 820 818 817 817 816 815 815 814 813 813 811 810 809 809 807 805 803 801 800 797 795 794 793 792 791 789 787 785 784 784 784 783 784 784 783 783 784 785 785
813 812 813 810 807 808 809 807 806 806 806 807 808 808 809 811 813 816 817 817 818 818 818 820 821 821 823 825 825 825 824 824 825 825 826 826 826 826 825 824 823 822 821 820 819 819 819 819 817 816 815 814 814 814 813 813 812 810 809 808 807 807 806 804 802 800 797 795 794 793 792 791 789 787 785 784 784 783 782 781 781 781 781 782 782 781
810 812 815 813 809 808 806 804 804 806 806 807 807 807 809 812 812 814 816 817 817 817 818 820 821 821 823 824 824 824 824 823 824 825 825 825 825 825 825 824 823 822 821 819 819 818 818 817 816 815 814 813 813 812 811 811 810 809 808 807 806 805 804 803 802 800 798 796 794 792 790 789 787 786 784 783 782 782 781 780 779 779 780 780 779 778
809 812 815 813 812 814 810 803 802 805 805 805 807 807 808 811 811 813 815 816 816 817 818 820 821 822 823 824 824 824 824 823 824 824 823 824 824 824 824 824 823 822 821 819 818 818 817 816 814 813 812 812 811 810 809 809 808 807 806 805 804 803 801 800 799 798 797 795 793 791 789 787 786 784 782 781 780 779 778 778 777 777 777 777 777 776
806 811 813 811 811 812 808 802 802 805 805 804 805 805 806 808 809 810 813 814 815 817 818 819 821 822 821 822 823 823 823 823 823 822 822 823 823 823 823 823 822 821 820 819 818 817 816 814 813 812 811 810 809 809 808 806 806 805 804 803 802 801 800 798 797 795 794 793 792 790 788 786 784 783 781 780 778 777 776 775 775 775 774 774 775 775
806 810 809 808 809 808 804 801 802 805 804 803 804 804 804 805 807 809 811 813 814 816 818 819 820 821 821 821 822 822 822 822 821 821 821 821 821 822 822 822 821 820 819 818 817 815 814 813 811 810 809 808 808 807 806 804 803 803 802 801 801 800 798 797 795 794 792 791 789 788 787 786 784 782 780 779 777 776 775 774 773 773 772 772 772 772
808 807 804 807 810 806 800 799 801 803 801 797 797 801 803 804 805 807 809 811 813 814 816 817 818 819 820 820 821 821 821 820 820 820 819 819 819 819 820 820 819 818 817 816 815 813 812 811 809 808 807 806 805 805 804 802 801 800 799 799 798 798 797 796 794 793 790 789 787 786 785 784 782 780 779 778 776 774 773 772 771 771 770 770 769 769
803 801 801 805 806 801 796 796 798 802 801 796 794 798 800 802 804 806 807 809 811 812 814 815 817 817 817 817 818 819 819 819 818 818 817 816 817 817 817 817 817 816 815 814 812 811 810 808 807 806 804 803 802 802 801 800 799 797 797 796 796 795 795 794 793 792 789 787 786 784 783 783 781 779 778 776 775 773 772 771 769 767 767 767 766 765